Regional Weather Roundup
Issued by NWS

Home | Current Version | Previous Version | Text Only | Print | Product List | Glossary On
Versions: 1 2 3 4 5 6 7 8 9 10 11 12 13 14 15 16 17 18 19 20 21 22 23 24 25 26 27 28 29 30 31 32 33 34 35 36 37 38 39 40 41 42 43 44 45 46 47 48 49 50
000
ASCA44 KEWX 230420
RWRMX

LATIN AMERICA AND CARIBBEAN REGIONAL WEATHER ROUNDUP
NATIONAL WEATHER SERVICE AUSTIN/SAN ANTONIO TX
1100 PM CDT WED OCT 22 2014

NOTE: "FAIR" INDICATED FEW OR NO CLOUDS BELOW 12,000 FEET WITH NO
SIGNIFICANT WEATHER AND/OR OBSTRUCTIONS TO VISIBILITY.

BAJA CALIFORNIA

CITY           SKY/WX    TMP DP  RH WIND       PRES   REMARKS
LA PAZ         PTCLDY    75  63  64 SE6       29.88
MEXICALI       CLEAR     81  43  26 W7        29.88
S.J. DEL CABO    N/A    N/A N/A N/A MISG        N/A
TIJUANA        CLEAR     64  59  82 CALM      29.96S

NORTHWESTERN MEXICO

CITY           SKY/WX    TMP DP  RH WIND       PRES   REMARKS
CULIACAN       MOCLDY    82  70  65 CALM      29.84
DURANGO        CLOUDY    61  55  82 NW10      30.25R
HERMOSILLO     CLEAR     84  54  34 N5        29.87
LOS MOCHIS       N/A    N/A N/A N/A MISG        N/A
OBREGON        CLEAR     77  63  61 S3        29.84

NORTHEASTERN MEXICO

CITY           SKY/WX    TMP DP  RH WIND       PRES   REMARKS
CHIHUAHUA      CLEAR     63  55  77 N3        30.19
MONTERREY      LGT RAIN  70  68  94 E6        30.08R
REYNOSA        PTCLDY    72  64  78 NE5       30.04
TORREON        MOCLDY    70  61  73 NW9       30.12R

WESTERN MEXICO

CITY           SKY/WX    TMP DP  RH WIND       PRES   REMARKS
AGUASCALIENTES CLEAR     61  48  63 NE8       30.23
DEL BAJIO      PTCLDY    64  54  68 N9        30.25R
GUADALAJARA    MOCLDY    64  59  82 CALM      30.12
MAZATLAN       CLEAR     73  68  83 NW6       29.84R
P. VALLARTA    CLOUDY    79  77  94 E2        29.85R
ZACATECAS      MOCLDY    59  48  67 E12G23    30.26

CENTRAL MEXICO

CITY           SKY/WX    TMP DP  RH WIND       PRES   REMARKS
MEXICO CITY    PTCLDY    61  50  67 N6        30.33R
MORELIA        PTCLDY    59  59 100 CALM      30.20
PUEBLA         CLOUDY    54  50  87 N8        30.31S
QUERETARO      PTCLDY    57  54  88 E8        30.31R
S. LUIS POTOSI PTCLDY    61  54  77 SE14      30.27
TAMPICO        PTCLDY    77  73  88 N9        29.98S
TOLUCA         PTCLDY    55  45  67 E10       30.37R

SOUTHERN MEXICO

CITY           SKY/WX    TMP DP  RH WIND       PRES   REMARKS
ACAPULCO       MOCLDY    77  77 100 NE3       29.85
VERACRUZ       PTCLDY    79  70  73 N12G23    29.91R

YUCATAN PENINSULA

CITY           SKY/WX    TMP DP  RH WIND       PRES   REMARKS
CAMPECHE       CLOUDY    77  77 100 E6        29.80R
CANCUN         CLOUDY    75  75 100 SE3       29.80F
COZUMEL        LGT RAIN  73  73 100 CALM      29.81F
MERIDA         MOCLDY    75  73  94 CALM      29.82S
TAPACHULA      MOCLDY    79  75  89 CALM      29.88R
TUX. GUTIERREZ DRIZZLE   72  72 100 N5        29.93S
VILLAHERMOSA   CLOUDY    77  75  94 CALM      29.86R

CENTRAL AMERICA

CITY           SKY/WX    TMP DP  RH WIND       PRES   REMARKS
MANAGUA        PTCLDY    77  75  94 CALM      29.86R

CARIBBEAN

CITY           SKY/WX    TMP DP  RH WIND       PRES   REMARKS
ARUBA          PTCLDY    82  77  83 E15       29.86S HX  91
KINGSTON       PTCLDY    84  75  74 SE14      29.86F HX  92
NASSAU         CLOUDY    77  72  83 CALM      29.96F
SAN JUAN       PTCLDY    81  73  78 SE3       29.96S
SANTO DOMINGO  PTCLDY    77  73  88 E7        29.92S
ST. MAARTEN    PTCLDY    82  73  74 E10       29.94S

$$




USA.gov is the U.S. government's official web portal to all federal, state and local government web resources and services.